Regional Weather Roundup
Issued by NWS

Home | Current Version | Previous Version | Graphics & Text | Print | Product List | Glossary On
Versions: 1 2 3 4 5 6 7 8 9 10 11 12 13 14 15 16 17 18 19 20 21 22 23 24 25 26 27 28 29 30 31 32 33 34 35 36 37 38 39 40 41 42 43 44 45 46 47 48 49 50
000
ASUS43 KIND 300059
RWRIN

WEATHER ROUNDUP FOR INDIANA
NATIONAL WEATHER SERVICE INDIANAPOLIS IN
900 PM EDT MON SEP 29 2014

NOTE: "FAIR" INDICATES FEW OR NO CLOUDS BELOW 12,000 FEET WITH NO
SIGNIFICANT WEATHER AND/OR OBSTRUCTIONS TO VISIBILITY.

* - STATION DOES NOT REPORT WEATHER SUCH AS PRECIPITATION OR FOG.

+ - STATION NOT QUALITY CONTROLLED BY THE NATIONAL WEATHER SERVICE.
    USE DATA WITH CAUTION...ESPECIALLY DEWPOINT AND RELATIVE
    HUMIDITY OBSERVATIONS.

INZ001>003-010>013-019-020-300200-
NORTHWEST INDIANA

CITY           SKY/WX    TMP DP  RH WIND       PRES   REMARKS
GARY /AIRPORT/ CLOUDY   N/A N/A N/A N12G23    29.99R
VALPARAISO     NOT AVBL

$$

LMZ046-743>745-300200-
SOUTHERN LAKE MICHIGAN

STATION/POSITION TIME  TEMP WIND        PRES
                       AIR  DIR/SP/G
                 (UTC) (F)  (DEG/KT/KT) (MB)
MICHIGAN CITY    0000   75  130/  3/  3   N/A

$$

INZ004-005-014>016-021>024-300200-
NORTH CENTRAL INDIANA

CITY           SKY/WX    TMP DP  RH WIND       PRES   REMARKS
ELKHART        CLEAR     64  57  77 CALM      29.93S
SOUTH BEND     NOT AVBL
WARSAW +       CLEAR     63  59  88 CALM      29.93S

$$

INZ006>009-017-018-025>027-300200-
NORTHEAST INDIANA

CITY           SKY/WX    TMP DP  RH WIND       PRES   REMARKS
ANGOLA *+      CLEAR     63  54  72 CALM      29.94R
FORT WAYNE     CLEAR     63  55  75 SW5       29.94S

$$

INZ028-029-035-036-043>045-051>053-300200-
WEST CENTRAL INDIANA

CITY           SKY/WX    TMP DP  RH WIND       PRES   REMARKS
GREENCASTLE +  CLEAR     63  57  82 CALM      29.96R
LAFAYETTE      CLEAR     64  58  80 CALM      29.93S
TERRE HAUTE    CLEAR     62  57  83 CALM      29.95R

$$

INZ030>032-037>040-046>048-054>057-064-065-300200-
CENTRAL INDIANA

CITY           SKY/WX    TMP DP  RH WIND       PRES   REMARKS
FRANKFORT +    CLEAR     62  57  84 CALM      29.96S
INDIANAPOLIS   CLEAR     72  51  47 N3        29.94S
-EAGLE CREEK   CLEAR     68  58  70 CALM      29.95R
KOKOMO *+      CLEAR     63  54  72 CALM      29.95R
MT COMFORT *+  CLEAR     63  46  55 CALM      29.96S
SHELBYVILLE    CLEAR     63  52  67 CALM      29.95R

$$

INZ033-034-041-042-049-050-058-059-300200-
EAST CENTRAL INDIANA

CITY           SKY/WX    TMP DP  RH WIND       PRES   REMARKS
MUNCIE         CLEAR     62  53  72 CALM      29.95S

$$

INZ060-061-067>069-081>083-085>088-300200-
SOUTHWEST INDIANA

CITY           SKY/WX    TMP DP  RH WIND       PRES   REMARKS
EVANSVILLE     CLEAR     71  57  61 CALM      29.95R

$$

INZ062-063-066-070>080-084-089>092-300200-
SOUTH CENTRAL AND SOUTHEAST INDIANA

CITY           SKY/WX    TMP DP  RH WIND       PRES   REMARKS
BLOOMINGTON    CLEAR     61  57  87 CALM      29.96R

$$




USA.gov is the U.S. government's official web portal to all federal, state and local government web resources and services.